This is the latest recevied weather packets stored in our database for station/object EA1FBN. If no packets are shown the sender has not sent any weather packets the latest 10 day(s).
| Time | Temp. | Humidity | Pressure | Rain* | Wind** | Luminosity | Snow |
|---|---|---|---|---|---|---|---|
| 1778067305 | 13.89° C | 56% | 1016 hPa | 0 mm | - | - | - |
| 1778067005 | 13.33° C | 57% | 1016.1 hPa | 0 mm | - | - | - |
| 1778066705 | 12.78° C | 58% | 1016.1 hPa | 0 mm | - | - | - |
| 1778066405 | 12.78° C | 59% | 1016.1 hPa | 0 mm | - | - | - |
| 1778066105 | 12.78° C | 58% | 1016.2 hPa | 0 mm | - | - | - |
| 1778065805 | 12.78° C | 58% | 1016.1 hPa | 0 mm | - | - | - |
| 1778065505 | 12.22° C | 60% | 1016.1 hPa | 0 mm | - | - | - |
| 1778065205 | 12.22° C | 60% | 1016.3 hPa | 0 mm | - | - | - |
| 1778064905 | 12.22° C | 61% | 1016.2 hPa | 0 mm | - | - | - |
| 1778064605 | 12.22° C | 63% | 1016.2 hPa | 0 mm | - | - | - |
| 1778064305 | 11.67° C | 64% | 1016.2 hPa | 0 mm | - | - | - |
| 1778064005 | 11.67° C | 62% | 1016.2 hPa | 0 mm | - | - | - |
| 1778063705 | 11.67° C | 62% | 1016.2 hPa | 0 mm | - | - | - |
| 1778063405 | 11.67° C | 63% | 1016.2 hPa | 0 mm | - | - | - |
| 1778063105 | 12.22° C | 64% | 1016.3 hPa | 0 mm | - | - | - |
| 1778062805 | 11.67° C | 66% | 1016.3 hPa | 0 mm | - | - | - |
| 1778062505 | 11.11° C | 68% | 1016.3 hPa | 0 mm | - | - | - |
| 1778062205 | 11.11° C | 69% | 1016.4 hPa | 0 mm | - | - | - |
| 1778061905 | 11.11° C | 69% | 1016.5 hPa | 0 mm | - | - | - |
| 1778061605 | 11.11° C | 72% | 1016.5 hPa | 0 mm | - | - | - |
| 1778061305 | 10.56° C | 71% | 1016.5 hPa | 0 mm | - | - | - |
| 1778061005 | 10.56° C | 73% | 1016.6 hPa | 0.25 mm | - | - | - |
| 1778060706 | 10.56° C | 75% | 1016.6 hPa | 0.25 mm | - | - | - |
| 1778060406 | 10° C | 52% | 1016.6 hPa | 0.25 mm | - | - | - |
| 1778060106 | 9.44° C | 45% | 1016.6 hPa | 0.25 mm | - | - | - |
* Rain latest hour (hover to see other rain measurements)
** Current wind speed in m/s (hover to see current wind gust speed)